Estación Meteorológica Peña el Pijo (Robertgarden) [ 02/19/20 14:36:08 CET ]

Fecha Hora Presion(HPa) Temp (°C) Humedad % Rocio (°C) Viento ( m/s) Direccion Lluvia 1Hora(mm) Lluvia 24H(mm) LLuvia Total(mm)
2020-Jan-20 01:09:05 1005.300 - - - - N     39.88
2020-Jan-20 02:09:36 1005.000 - - - - N     39.88
2020-Jan-20 03:09:39 1004.500 - - - - N     39.88
2020-Jan-20 04:10:43 1004.400 - - - - N     39.88
2020-Jan-20 05:10:29 1003.600 - - - - N     39.88
2020-Jan-20 06:10:28 1003.700 - - - - N     39.88
2020-Jan-20 07:09:16 1003.600 - - - - N     39.88
2020-Jan-20 08:09:12 1003.500 - - - - N     39.88
2020-Jan-20 09:08:38 1003.700 - - - - N     39.88
2020-Jan-20 10:09:12 1004.600 - - - - N     39.88
2020-Jan-20 11:09:05 1004.900 - - - - N     39.88
2020-Jan-20 12:09:14 1004.900 - - - - N     39.88
2020-Jan-20 13:09:14 1004.400 - - - - N     39.88
2020-Jan-20 14:09:12 1003.600 - - - - N     39.88
2020-Jan-20 15:09:41 1003.200 - - - - N     39.88
2020-Jan-20 16:09:10 1003.100 - - - - N     39.88
2020-Jan-20 17:09:02 1002.800 - - - - N     39.88
2020-Jan-20 18:09:35 1003.400 - - - - N     39.88
2020-Jan-20 19:09:34 1003.900 - - - - N     39.88
2020-Jan-20 20:08:46 1004.100 - - - - N     39.88
2020-Jan-20 21:09:22 1004.200 - - - - N     39.88
2020-Jan-20 22:08:48 1004.400 - - - - N     39.88
2020-Jan-20 23:09:23 1004.200 - - - - N     39.88

Temperatura Máxima:    Temperatura Mínima:
Presión Máxima:1005.300 Hpa    Presión Mínima:1002.800 Hpa


Volver